Regional Weather Roundup
Issued by NWS

Home | Current Version | Previous Version | Graphics & Text | Print | Product List | Glossary On
Versions: 1 2 3 4 5 6 7 8 9 10 11 12 13 14 15 16 17 18 19 20 21 22 23 24 25 26 27 28 29 30 31 32 33 34 35 36 37 38 39 40 41 42 43 44 45 46 47 48 49 50
000
ASUS43 KFSD 061202
RWRSD

WEATHER ROUNDUP FOR SOUTH DAKOTA
NATIONAL WEATHER SERVICE SIOUX FALLS SD
700 AM CDT MON JUL 06 2015

NOTE: "FAIR" INDICATES FEW OR NO CLOUDS BELOW 12,000 FEET WITH NO
SIGNIFICANT WEATHER AND/OR OBSTRUCTIONS TO VISIBILITY.


SDZ001>005-009-010-012>017-061300-
NORTHWEST AND NORTH CENTRAL SOUTH DAKOTA

CITY           SKY/WX    TMP DP  RH WIND       PRES   REMARKS
BUFFALO          N/A     58  54  86 NW16      30.11R
FAITH            N/A     58  53  84 N6        30.12S
MOBRIDGE       MOCLDY    63  61  93 N10       30.05R FOG
$$

SDZ012>016-024>037-041>051-057-063-072>074-061300-
SOUTHWEST AND SOUTH CENTRAL SOUTH DAKOTA

CITY           SKY/WX    TMP DP  RH WIND       PRES   REMARKS
RAPID CTY ARPT CLOUDY    59  55  87 N13       30.17R FOG
PIERRE         CLOUDY    63  60  90 N14       30.03R FOG
CUSTER         FOG       52  49  89 NE7       30.22S VSB 3/4
ELLSWORTH AFB  CLOUDY    59  55  88 NW14      30.17R
PHILIP         CLOUDY    62  59  90 N12       30.09R FOG
PINE RIDGE     CLOUDY    59  56  89 N8        30.13R FOG
WINNER         CLOUDY    65  62  90 NW14      30.01R FOG
$$

SDZ004>011-016>023-039-040-061300-
NORTHEAST SOUTH DAKOTA

CITY           SKY/WX    TMP DP  RH WIND       PRES   REMARKS
ABERDEEN       CLOUDY    65  61  87 N14       29.98R FOG
WATERTOWN      CLOUDY    63  61  93 N14       29.91R FOG
BROOKINGS      CLOUDY    66  63  88 N14       29.89R
SISSETON         N/A     62  60  93 N12       29.93R
$$

SDZ017-020-022-023-036>040-048>070-061300-
SOUTHEAST SOUTH DAKOTA

CITY           SKY/WX    TMP DP  RH WIND       PRES   REMARKS
SIOUX FALLS    LGT RAIN  68  68 100 NW3       29.88R VSB 1
HURON          CLOUDY    62  55  77 N14       29.93R HAZE
CHAMBERLAIN    CLOUDY    64  60  88 N12       30.00R FOG
MITCHELL       CLOUDY    67  64  90 N8        29.93R FOG
YANKTON        CLOUDY    70  66  88 S7        29.86R
$$

ABBREVIATIONS USED IN REMARKS
   TC - TEMPERATURE IN CELSIUS
  WCI - WIND CHILL INDEX
   HX - HEAT INDEX
  VSB - VISIBILITY




USA.gov is the U.S. government's official web portal to all federal, state and local government web resources and services.